Back to Top

Language: 

My Weather Underground Personal Weather Station Historical Data with Graphs...

Delerius Weather Station Historical Data
Daily Summary for September 18, 2017 Units:  Metric    English   Both
« Previous Day
Next Day »
Daily Weekly Monthly Yearly Custom
  High: Low: Average:
Temperature: 15.6 °C 8.4 °C 11.4 °C
Dew Point: 10.9 °C 7.7 °C 9.7 °C
Humidity: 95 % 65 % 89 %
Wind Speed: 12.9 km/h 0 km/h 6 km/h
Wind Gust: 22.5 km/h - -
Wind:- - WNW
Pressure: 1019.9 hPa 1016.8 hPa -
Precipitation: 3.05 mm    
Historical Graphs
 
 
Tabular Data for September 18, 2017
Time Temperature Dew Point Pressure Wind Wind Speed Wind Gust Humidity Rainfall Rate (Hourly) solar Conditions
00:00 11.5 °C 10.7 °C 1016.8 hPa NW 4.8 km/h 11.3 km/h 95 % 0 mm 0 W/m2
00:05 11.4 °C 10.6 °C 1017.2 hPa NW 4.8 km/h 11.3 km/h 95 % 0 mm 0 W/m2
00:10 11.4 °C 10.6 °C 1017.2 hPa NW 3.2 km/h 9.7 km/h 95 % 0 mm 0 W/m2
00:15 11.3 °C 10.4 °C 1017.2 hPa NW 3.2 km/h 8 km/h 94 % 0 mm 0 W/m2
00:20 11.2 °C 10.3 °C 1017.2 hPa NW 3.2 km/h 9.7 km/h 94 % 0 mm 0 W/m2
00:25 11.2 °C 10.4 °C 1017.2 hPa NW 3.2 km/h 11.3 km/h 95 % 0 mm 0 W/m2
00:35 11.2 °C 10.4 °C 1017.2 hPa NW 4.8 km/h 11.3 km/h 95 % 0 mm 0 W/m2
00:41 11.3 °C 10.6 °C 1017.2 hPa NW 4.8 km/h 11.3 km/h 95 % 0 mm 0 W/m2
00:46 11.3 °C 10.6 °C 1017.2 hPa NNW 4.8 km/h 11.3 km/h 95 % 0 mm 0 W/m2
00:51 11.3 °C 10.6 °C 1017.2 hPa NNW 8 km/h 14.5 km/h 95 % 0 mm 0 W/m2
00:56 11.3 °C 10.6 °C 1017.2 hPa NNW 8 km/h 16.1 km/h 95 % 0 mm 0 W/m2
01:01 11.3 °C 10.6 °C 1017.2 hPa NNW 6.4 km/h 16.1 km/h 95 % 0 mm 0 W/m2
01:06 11.2 °C 10.4 °C 1017.2 hPa NNW 4.8 km/h 12.9 km/h 95 % 0 mm 0 W/m2
01:11 11.2 °C 10.4 °C 1016.8 hPa NW 4.8 km/h 11.3 km/h 95 % 0 mm 0 W/m2
01:16 11.2 °C 10.4 °C 1016.8 hPa WNW 4.8 km/h 11.3 km/h 95 % 0 mm 0 W/m2
01:21 11.2 °C 10.4 °C 1017.2 hPa WNW 3.2 km/h 9.7 km/h 95 % 0 mm 0 W/m2
01:26 11.2 °C 10.4 °C 1017.2 hPa NW 3.2 km/h 11.3 km/h 95 % 0 mm 0 W/m2
01:31 11.2 °C 10.4 °C 1017.2 hPa NW 3.2 km/h 11.3 km/h 95 % 0 mm 0 W/m2
01:36 11.3 °C 10.6 °C 1017.2 hPa NW 4.8 km/h 11.3 km/h 95 % 0 mm 0 W/m2
01:41 11.3 °C 10.6 °C 1017.2 hPa NW 4.8 km/h 11.3 km/h 95 % 0 mm 0 W/m2
01:46 11.3 °C 10.6 °C 1017.2 hPa NW 4.8 km/h 11.3 km/h 95 % 0 mm 0 W/m2
01:51 11.2 °C 10.4 °C 1017.2 hPa NW 4.8 km/h 9.7 km/h 95 % 0 mm 0 W/m2
01:56 11.2 °C 10.4 °C 1017.2 hPa NW 6.4 km/h 14.5 km/h 95 % 0 mm 0 W/m2
02:07 11.3 °C 10.6 °C 1017.2 hPa NW 4.8 km/h 11.3 km/h 95 % 0 mm 0 W/m2
02:12 11.2 °C 10.4 °C 1017.2 hPa NW 6.4 km/h 12.9 km/h 95 % 0 mm 0 W/m2
02:17 11.3 °C 10.6 °C 1016.8 hPa NW 6.4 km/h 12.9 km/h 95 % 0 mm 0 W/m2
02:22 11.3 °C 10.6 °C 1016.8 hPa NW 4.8 km/h 11.3 km/h 95 % 0 mm 0 W/m2
02:27 11.2 °C 10.4 °C 1016.8 hPa NW 4.8 km/h 14.5 km/h 95 % 0 mm 0 W/m2
02:32 11.2 °C 10.4 °C 1016.8 hPa NW 6.4 km/h 14.5 km/h 95 % 0 mm 0 W/m2
02:37 11.2 °C 10.4 °C 1016.8 hPa NW 6.4 km/h 12.9 km/h 95 % 0 mm 0 W/m2
02:42 11.2 °C 10.4 °C 1016.8 hPa NW 8 km/h 12.9 km/h 95 % 0 mm 0 W/m2
02:47 11.2 °C 10.4 °C 1016.8 hPa NW 6.4 km/h 16.1 km/h 95 % 0 mm 0 W/m2
02:52 11.2 °C 10.4 °C 1016.8 hPa NW 6.4 km/h 16.1 km/h 95 % 0 mm 0 W/m2
02:57 11.1 °C 10.3 °C 1016.8 hPa WNW 6.4 km/h 12.9 km/h 95 % 0 mm 0 W/m2
03:02 11 °C 10.1 °C 1016.8 hPa NW 6.4 km/h 11.3 km/h 94 % 0 mm 0 W/m2
03:07 10.9 °C 9.9 °C 1016.8 hPa NW 6.4 km/h 11.3 km/h 94 % 0 mm 0 W/m2
03:12 10.9 °C 9.9 °C 1016.8 hPa NW 6.4 km/h 14.5 km/h 94 % 0 mm 0 W/m2
03:17 10.9 °C 9.9 °C 1016.8 hPa NW 6.4 km/h 14.5 km/h 94 % 0 mm 0 W/m2
03:22 10.8 °C 10.1 °C 1016.8 hPa NW 6.4 km/h 14.5 km/h 95 % 0 mm 0 W/m2
03:27 10.8 °C 10.1 °C 1016.8 hPa NW 6.4 km/h 14.5 km/h 95 % 0 mm 0 W/m2
03:32 10.8 °C 10.1 °C 1016.8 hPa NW 4.8 km/h 11.3 km/h 95 % 0 mm 0 W/m2
03:37 10.8 °C 10.1 °C 1016.8 hPa NW 6.4 km/h 14.5 km/h 95 % 0 mm 0 W/m2
03:42 10.8 °C 10.1 °C 1016.8 hPa NW 6.4 km/h 14.5 km/h 95 % 0 mm 0 W/m2
03:47 10.8 °C 10.1 °C 1016.8 hPa NW 8 km/h 17.7 km/h 95 % 0 mm 0 W/m2
03:52 10.9 °C 10.1 °C 1016.8 hPa NW 9.7 km/h 17.7 km/h 95 % 0 mm 0 W/m2
03:57 10.9 °C 10.1 °C 1016.8 hPa NW 9.7 km/h 19.3 km/h 95 % 0 mm 0 W/m2
04:02 10.9 °C 10.1 °C 1016.8 hPa NW 11.3 km/h 20.9 km/h 95 % 0 mm 0 W/m2
04:07 10.9 °C 9.9 °C 1016.8 hPa NNW 9.7 km/h 20.9 km/h 94 % 0 mm 0 W/m2
04:12 10.9 °C 9.9 °C 1016.8 hPa NW 8 km/h 14.5 km/h 94 % 0 mm 0 W/m2
04:18 10.9 °C 9.9 °C 1016.8 hPa NW 8 km/h 12.9 km/h 94 % 0 mm 0 W/m2
04:20 10.9 °C 9.9 °C 1016.8 hPa NW 8 km/h 19.3 km/h 94 % 0 mm 0 W/m2
04:25 10.9 °C 9.9 °C 1016.8 hPa NW 6.4 km/h 19.3 km/h 94 % 0 mm 0 W/m2
04:26 10.9 °C 9.9 °C 1016.8 hPa NW 6.4 km/h 19.3 km/h 94 % 0 mm 0 W/m2
04:30 10.9 °C 9.9 °C 1016.8 hPa NW 6.4 km/h 16.1 km/h 94 % 0 mm 0 W/m2
04:35 10.9 °C 9.9 °C 1017.2 hPa NW 9.7 km/h 17.7 km/h 94 % 0 mm 0 W/m2
04:40 11 °C 10.1 °C 1017.2 hPa NW 9.7 km/h 19.3 km/h 94 % 0 mm 0 W/m2
04:45 11 °C 10.1 °C 1017.2 hPa NNW 9.7 km/h 20.9 km/h 94 % 0 mm 0 W/m2
04:50 11 °C 10.1 °C 1017.2 hPa NNW 8 km/h 20.9 km/h 94 % 0 mm 0 W/m2
04:55 11 °C 10.1 °C 1017.2 hPa NNW 8 km/h 14.5 km/h 94 % 0 mm 0 W/m2
05:00 10.9 °C 9.9 °C 1017.2 hPa NNW 8 km/h 14.5 km/h 94 % 0 mm 0 W/m2
05:05 10.9 °C 9.8 °C 1017.2 hPa NNW 8 km/h 17.7 km/h 93 % 0 mm 0 W/m2
05:10 10.8 °C 9.7 °C 1017.2 hPa NNW 8 km/h 17.7 km/h 93 % 0 mm 0 W/m2
05:15 10.8 °C 9.7 °C 1017.2 hPa NNW 6.4 km/h 14.5 km/h 93 % 0 mm 0 W/m2
05:20 10.7 °C 9.6 °C 1017.2 hPa NNW 8 km/h 17.7 km/h 93 % 0 mm 0 W/m2
05:25 10.6 °C 9.5 °C 1017.2 hPa NW 8 km/h 17.7 km/h 93 % 0 mm 0 W/m2
05:30 10.5 °C 9.4 °C 1017.2 hPa NW 8 km/h 14.5 km/h 93 % 0 mm 0 W/m2
05:35 10.4 °C 9.3 °C 1017.2 hPa NNW 8 km/h 14.5 km/h 93 % 0 mm 0 W/m2
05:40 10.4 °C 9.3 °C 1017.2 hPa NNW 6.4 km/h 12.9 km/h 93 % 0 mm 0 W/m2
05:45 10.3 °C 9.2 °C 1017.2 hPa NW 6.4 km/h 12.9 km/h 93 % 0 mm 0 W/m2
05:50 10.2 °C 9.1 °C 1017.2 hPa NW 6.4 km/h 12.9 km/h 93 % 0 mm 0 W/m2
05:55 10.2 °C 9.1 °C 1017.5 hPa NW 6.4 km/h 14.5 km/h 93 % 0 mm 0 W/m2
06:00 10.2 °C 9.3 °C 1017.5 hPa NW 6.4 km/h 14.5 km/h 94 % 0 mm 0 W/m2
06:05 10.2 °C 9.3 °C 1017.2 hPa NW 6.4 km/h 14.5 km/h 94 % 0 mm 0 W/m2
06:10 10.2 °C 9.3 °C 1017.2 hPa NW 6.4 km/h 12.9 km/h 94 % 0 mm 0 W/m2
06:15 10.1 °C 9.2 °C 1017.2 hPa NW 8 km/h 14.5 km/h 94 % 0 mm 0 W/m2
06:20 10.1 °C 9.2 °C 1017.2 hPa NW 6.4 km/h 14.5 km/h 94 % 0 mm 0 W/m2
06:25 10 °C 9.1 °C 1017.5 hPa NW 4.8 km/h 11.3 km/h 94 % 0 mm 0 W/m2
06:30 9.9 °C 9 °C 1017.5 hPa NW 4.8 km/h 12.9 km/h 94 % 0 mm 0 W/m2
06:35 9.9 °C 9 °C 1017.5 hPa WNW 4.8 km/h 12.9 km/h 94 % 0 mm 0 W/m2
06:40 9.8 °C 8.9 °C 1017.5 hPa WNW 3.2 km/h 11.3 km/h 94 % 0 mm 0 W/m2
06:45 9.8 °C 8.9 °C 1017.5 hPa WNW 3.2 km/h 8 km/h 94 % 0 mm 0 W/m2
06:50 9.8 °C 8.9 °C 1017.5 hPa NW 3.2 km/h 9.7 km/h 94 % 0 mm 5 W/m2
06:55 9.8 °C 8.9 °C 1017.5 hPa WNW 4.8 km/h 11.3 km/h 94 % 0 mm 5 W/m2
07:00 9.8 °C 8.9 °C 1017.5 hPa WNW 6.4 km/h 11.3 km/h 94 % 0 mm 7 W/m2
07:05 9.8 °C 8.9 °C 1017.5 hPa NW 6.4 km/h 14.5 km/h 94 % 0 mm 11 W/m2
07:10 9.9 °C 9 °C 1017.8 hPa NW 8 km/h 14.5 km/h 94 % 0 mm 16 W/m2
07:15 9.9 °C 9 °C 1017.8 hPa NW 8 km/h 14.5 km/h 94 % 0 mm 18 W/m2
07:20 9.9 °C 9 °C 1017.8 hPa NW 4.8 km/h 12.9 km/h 94 % 0 mm 19 W/m2
07:26 10 °C 9.1 °C 1017.8 hPa WNW 3.2 km/h 14.5 km/h 94 % 0 mm 23 W/m2
07:31 10.1 °C 9.2 °C 1017.8 hPa WNW 6.4 km/h 14.5 km/h 94 % 0 mm 32 W/m2
07:36 10.1 °C 9.2 °C 1017.8 hPa WNW 6.4 km/h 12.9 km/h 94 % 0 mm 46 W/m2
07:41 10.2 °C 9.3 °C 1017.8 hPa WNW 8 km/h 14.5 km/h 94 % 0 mm 70 W/m2
07:46 10.3 °C 9.4 °C 1018.2 hPa WNW 8 km/h 14.5 km/h 94 % 0 mm 77 W/m2
07:51 10.4 °C 9.5 °C 1018.2 hPa WNW 8 km/h 12.9 km/h 94 % 0 mm 146 W/m2
07:56 10.5 °C 9.6 °C 1018.2 hPa WNW 8 km/h 17.7 km/h 94 % 0 mm 216 W/m2
08:01 10.7 °C 9.8 °C 1018.2 hPa WNW 9.7 km/h 17.7 km/h 94 % 0 mm 243 W/m2
08:06 11.1 °C 10 °C 1018.2 hPa NW 9.7 km/h 22.5 km/h 93 % 0 mm 218 W/m2
08:11 11.3 °C 10.1 °C 1018.2 hPa NW 9.7 km/h 22.5 km/h 92 % 0 mm 276 W/m2
08:16 11.6 °C 10.2 °C 1018.2 hPa NW 11.3 km/h 19.3 km/h 91 % 0 mm 163 W/m2
08:21 11.7 °C 9.9 °C 1018.2 hPa NW 12.9 km/h 22.5 km/h 89 % 0 mm 299 W/m2
08:26 11.9 °C 10.2 °C 1018.2 hPa NW 11.3 km/h 22.5 km/h 89 % 0 mm 188 W/m2
08:31 12 °C 10.1 °C 1018.2 hPa NW 9.7 km/h 19.3 km/h 88 % 0 mm 181 W/m2
08:36 12 °C 10.1 °C 1018.2 hPa NW 9.7 km/h 17.7 km/h 88 % 0 mm 186 W/m2
08:41 12.2 °C 10.3 °C 1018.2 hPa NW 8 km/h 16.1 km/h 88 % 0 mm 348 W/m2
08:46 12.4 °C 10.3 °C 1018.2 hPa NW 9.7 km/h 20.9 km/h 87 % 0 mm 360 W/m2
08:51 12.7 °C 10.4 °C 1018.2 hPa NW 11.3 km/h 20.9 km/h 86 % 0 mm 185 W/m2
08:56 12.8 °C 10.2 °C 1018.2 hPa NW 11.3 km/h 20.9 km/h 84 % 0 mm 174 W/m2
09:01 12.7 °C 9.9 °C 1018.2 hPa NW 9.7 km/h 20.9 km/h 83 % 0 mm 155 W/m2
09:06 12.6 °C 9.9 °C 1018.2 hPa NW 9.7 km/h 19.3 km/h 84 % 0 mm 162 W/m2
09:11 12.4 °C 9.8 °C 1018.2 hPa NW 11.3 km/h 19.3 km/h 84 % 0 mm 271 W/m2
09:16 12.5 °C 9.9 °C 1018.2 hPa NW 11.3 km/h 19.3 km/h 84 % 0 mm 383 W/m2
09:21 12.6 °C 9.9 °C 1018.2 hPa NNW 12.9 km/h 22.5 km/h 84 % 0 mm 387 W/m2
09:26 12.8 °C 10.3 °C 1018.2 hPa NNW 9.7 km/h 22.5 km/h 85 % 0 mm 483 W/m2
09:31 13.1 °C 10.3 °C 1018.2 hPa NNW 8 km/h 17.7 km/h 83 % 0 mm 311 W/m2
09:36 13.2 °C 10.2 °C 1018.2 hPa NNW 8 km/h 19.3 km/h 82 % 0 mm 329 W/m2
09:41 13.3 °C 10.3 °C 1018.2 hPa NNW 11.3 km/h 19.3 km/h 82 % 0 mm 401 W/m2
09:46 13.4 °C 10.4 °C 1018.2 hPa NNW 11.3 km/h 19.3 km/h 82 % 0 mm 353 W/m2
09:51 13.4 °C 10 °C 1018.2 hPa NNW 9.7 km/h 19.3 km/h 80 % 0 mm 397 W/m2
09:53 13.5 °C 10.1 °C 1018.2 hPa NNW 11.3 km/h 19.3 km/h 80 % 0 mm 320 W/m2
09:58 13.6 °C 10.2 °C 1018.2 hPa NNW 9.7 km/h 17.7 km/h 80 % 0 mm 401 W/m2
10:03 13.6 °C 10 °C 1018.2 hPa NNW 11.3 km/h 20.9 km/h 79 % 0 mm 396 W/m2
10:08 13.6 °C 10 °C 1018.2 hPa NNW 11.3 km/h 20.9 km/h 79 % 0 mm 248 W/m2
10:14 13.5 °C 9.9 °C 1018.2 hPa NNW 11.3 km/h 20.9 km/h 79 % 0 mm 223 W/m2
10:19 13.4 °C 9.8 °C 1018.2 hPa NNW 9.7 km/h 20.9 km/h 79 % 0 mm 223 W/m2
10:24 13.3 °C 9.7 °C 1018.2 hPa NNW 9.7 km/h 20.9 km/h 79 % 0 mm 220 W/m2
10:29 13.2 °C 9.4 °C 1018.2 hPa NNW 11.3 km/h 20.9 km/h 78 % 0 mm 227 W/m2
10:34 13.2 °C 9.6 °C 1018.2 hPa NNW 11.3 km/h 19.3 km/h 79 % 0 mm 236 W/m2
10:39 13.1 °C 9.6 °C 1017.8 hPa NNW 9.7 km/h 19.3 km/h 79 % 0 mm 229 W/m2
10:44 13.1 °C 9.3 °C 1018.2 hPa NNW 8 km/h 19.3 km/h 78 % 0 mm 265 W/m2
10:49 13.1 °C 9.6 °C 1018.2 hPa North 9.7 km/h 19.3 km/h 79 % 0 mm 432 W/m2
10:54 13.2 °C 9.6 °C 1018.2 hPa NNW 8 km/h 19.3 km/h 79 % 0 mm 302 W/m2
10:59 13.3 °C 9.6 °C 1018.2 hPa NNW 9.7 km/h 17.7 km/h 78 % 0 mm 380 W/m2
11:04 13.4 °C 9.4 °C 1018.2 hPa NNW 11.3 km/h 19.3 km/h 77 % 0 mm 350 W/m2
11:09 13.5 °C 9.6 °C 1018.2 hPa NNW 11.3 km/h 20.9 km/h 77 % 0 mm 415 W/m2
11:14 13.6 °C 9.8 °C 1017.8 hPa NNW 9.7 km/h 20.9 km/h 78 % 0 mm 399 W/m2
11:19 13.8 °C 9.7 °C 1018.2 hPa NNW 9.7 km/h 19.3 km/h 76 % 0 mm 492 W/m2
11:24 13.9 °C 9.6 °C 1017.8 hPa NNW 11.3 km/h 19.3 km/h 75 % 0 mm 508 W/m2
11:29 13.9 °C 9.6 °C 1017.8 hPa North 11.3 km/h 19.3 km/h 75 % 0 mm 218 W/m2
11:34 13.8 °C 9.4 °C 1017.8 hPa North 11.3 km/h 19.3 km/h 75 % 0 mm 236 W/m2
11:39 13.7 °C 9.3 °C 1017.8 hPa NNW 11.3 km/h 17.7 km/h 75 % 0 mm 204 W/m2
11:44 13.7 °C 9.3 °C 1017.8 hPa NNW 9.7 km/h 17.7 km/h 75 % 0 mm 292 W/m2
11:49 13.7 °C 9.2 °C 1018.2 hPa North 8 km/h 16.1 km/h 74 % 0 mm 420 W/m2
11:54 13.8 °C 9.4 °C 1018.2 hPa North 8 km/h 16.1 km/h 75 % 0 mm 220 W/m2
11:59 13.9 °C 9.6 °C 1018.2 hPa NNW 8 km/h 16.1 km/h 75 % 0 mm 362 W/m2
12:04 13.9 °C 9.3 °C 1018.2 hPa NNW 8 km/h 16.1 km/h 74 % 0 mm 390 W/m2
12:09 14.1 °C 9.6 °C 1018.2 hPa NNW 6.4 km/h 12.9 km/h 74 % 0 mm 239 W/m2
12:19 14.6 °C 9.8 °C 1018.2 hPa NW 8 km/h 16.1 km/h 73 % 0 mm 737 W/m2
12:24 14.9 °C 9.7 °C 1018.2 hPa NW 9.7 km/h 16.1 km/h 71 % 0 mm 738 W/m2
12:29 15.3 °C 10.1 °C 1018.2 hPa NW 9.7 km/h 16.1 km/h 71 % 0 mm 749 W/m2
12:34 15.5 °C 9.8 °C 1018.2 hPa NNW 8 km/h 17.7 km/h 69 % 0 mm 367 W/m2
12:39 15.6 °C 9.5 °C 1018.2 hPa NW 8 km/h 19.3 km/h 67 % 0 mm 216 W/m2
12:44 15.6 °C 9.7 °C 1018.2 hPa NW 9.7 km/h 19.3 km/h 68 % 0 mm 257 W/m2
12:49 15.5 °C 9.4 °C 1018.2 hPa NNW 8 km/h 16.1 km/h 67 % 0 mm 341 W/m2
12:54 15.3 °C 9.4 °C 1017.8 hPa NNW 8 km/h 16.1 km/h 68 % 0 mm 295 W/m2
12:59 15.3 °C 9.2 °C 1017.8 hPa NNW 8 km/h 16.1 km/h 67 % 0 mm 267 W/m2
13:04 15.4 °C 9.5 °C 1017.8 hPa NW 8 km/h 14.5 km/h 68 % 0 mm 211 W/m2
13:09 15.3 °C 9.2 °C 1017.8 hPa NW 8 km/h 16.1 km/h 67 % 0 mm 220 W/m2
13:14 15.2 °C 9.3 °C 1017.8 hPa NW 8 km/h 16.1 km/h 68 % 0 mm 267 W/m2
13:19 15.2 °C 9.1 °C 1017.8 hPa NNW 6.4 km/h 19.3 km/h 67 % 0 mm 264 W/m2
13:25 15.1 °C 9 °C 1017.8 hPa North 6.4 km/h 19.3 km/h 67 % 0 mm 311 W/m2
13:30 15 °C 8.9 °C 1017.8 hPa NNE 8 km/h 16.1 km/h 67 % 0 mm 232 W/m2
13:35 15 °C 8.7 °C 1017.8 hPa NNE 6.4 km/h 16.1 km/h 66 % 0 mm 135 W/m2
13:40 14.8 °C 8.7 °C 1017.8 hPa NNE 6.4 km/h 12.9 km/h 67 % 0 mm 67 W/m2
13:45 14.6 °C 8.6 °C 1017.8 hPa North 8 km/h 12.9 km/h 67 % 0 mm 54 W/m2
13:50 14.3 °C 7.8 °C 1018.2 hPa North 9.7 km/h 19.3 km/h 65 % 0 mm 49 W/m2
13:55 14.2 °C 8.6 °C 1018.2 hPa North 11.3 km/h 20.9 km/h 69 % 0 mm 53 W/m2
14:00 14.1 °C 9.6 °C 1018.2 hPa NW 11.3 km/h 20.9 km/h 74 % 0.25 mm 65 W/m2
14:05 13.8 °C 10.1 °C 1018.2 hPa WNW 11.3 km/h 16.1 km/h 78 % 0.51 mm 60 W/m2
14:10 13.4 °C 10 °C 1018.2 hPa WNW 9.7 km/h 16.1 km/h 80 % 0.51 mm 67 W/m2
14:15 13.1 °C 10.3 °C 1018.2 hPa West 8 km/h 12.9 km/h 83 % 0.51 mm 90 W/m2
14:20 12.9 °C 10.4 °C 1018.2 hPa West 6.4 km/h 11.3 km/h 85 % 0.51 mm 95 W/m2
14:25 12.7 °C 10.4 °C 1018.2 hPa West 6.4 km/h 11.3 km/h 86 % 0.51 mm 111 W/m2
14:30 12.7 °C 10.6 °C 1018.2 hPa West 6.4 km/h 11.3 km/h 87 % 0.51 mm 139 W/m2
14:35 12.6 °C 10.7 °C 1018.2 hPa West 4.8 km/h 9.7 km/h 88 % 0.51 mm 156 W/m2
14:40 12.6 °C 10.8 °C 1018.2 hPa West 3.2 km/h 8 km/h 89 % 0.51 mm 165 W/m2
14:45 12.7 °C 10.9 °C 1018.2 hPa WNW 1.6 km/h 9.7 km/h 89 % 0.51 mm 188 W/m2
14:50 12.7 °C 10.8 °C 1018.2 hPa NW 3.2 km/h 11.3 km/h 88 % 0.51 mm 176 W/m2
14:55 12.8 °C 10.7 °C 1018.2 hPa NW 4.8 km/h 12.9 km/h 87 % 0.51 mm 107 W/m2
15:00 12.8 °C 10.5 °C 1018.2 hPa NW 4.8 km/h 12.9 km/h 86 % 0.51 mm 65 W/m2
15:05 12.7 °C 10.1 °C 1018.2 hPa NW 4.8 km/h 11.3 km/h 84 % 0.25 mm 49 W/m2
15:10 12.7 °C 10.1 °C 1018.2 hPa NW 8 km/h 12.9 km/h 84 % 0.25 mm 53 W/m2
15:15 12.6 °C 10.2 °C 1018.2 hPa NW 6.4 km/h 12.9 km/h 85 % 0 mm 58 W/m2
15:17 12.6 °C 10.2 °C 1018.2 hPa NW 6.4 km/h 12.9 km/h 85 % 0 mm 60 W/m2
15:22 12.5 °C 10.1 °C 1018.2 hPa WNW 4.8 km/h 12.9 km/h 85 % 0 mm 67 W/m2
15:27 12.4 °C 10.1 °C 1018.2 hPa WNW 4.8 km/h 11.3 km/h 86 % 0 mm 69 W/m2
15:32 12.3 °C 10.2 °C 1018.2 hPa West 6.4 km/h 12.9 km/h 87 % 0 mm 63 W/m2
15:37 12.2 °C 10.3 °C 1018.2 hPa West 8 km/h 12.9 km/h 88 % 0 mm 72 W/m2
15:42 12.1 °C 10.2 °C 1018.2 hPa West 6.4 km/h 11.3 km/h 88 % 0 mm 74 W/m2
15:47 12 °C 10.2 °C 1018.2 hPa West 6.4 km/h 11.3 km/h 89 % 0 mm 70 W/m2
15:52 11.8 °C 10.1 °C 1018.2 hPa West 8 km/h 12.9 km/h 89 % 0.25 mm 70 W/m2
15:57 11.8 °C 10.1 °C 1018.2 hPa West 8 km/h 12.9 km/h 89 % 0.25 mm 62 W/m2
16:02 11.7 °C 10.1 °C 1018.2 hPa West 8 km/h 12.9 km/h 90 % 0.25 mm 51 W/m2
16:07 11.6 °C 10 °C 1018.2 hPa West 6.4 km/h 12.9 km/h 90 % 0.51 mm 51 W/m2
16:12 11.6 °C 10.2 °C 1018.2 hPa West 4.8 km/h 9.7 km/h 91 % 0.51 mm 74 W/m2
16:17 11.6 °C 10.2 °C 1018.2 hPa West 4.8 km/h 8 km/h 91 % 0.51 mm 109 W/m2
16:22 11.6 °C 10.3 °C 1018.2 hPa West 4.8 km/h 9.7 km/h 92 % 0.51 mm 114 W/m2
16:27 11.6 °C 10.3 °C 1018.2 hPa West 4.8 km/h 11.3 km/h 92 % 0.51 mm 104 W/m2
16:32 11.6 °C 10.3 °C 1018.2 hPa West 4.8 km/h 11.3 km/h 92 % 0.51 mm 109 W/m2
16:37 11.7 °C 10.4 °C 1018.2 hPa WNW 4.8 km/h 9.7 km/h 92 % 0.51 mm 105 W/m2
16:42 11.8 °C 10.6 °C 1017.8 hPa WNW 3.2 km/h 9.7 km/h 92 % 0.51 mm 91 W/m2
16:47 11.8 °C 10.6 °C 1018.2 hPa WNW 4.8 km/h 12.9 km/h 92 % 0.51 mm 88 W/m2
16:53 11.8 °C 10.6 °C 1018.2 hPa WNW 6.4 km/h 12.9 km/h 92 % 0.25 mm 77 W/m2
16:58 11.9 °C 10.7 °C 1018.2 hPa WNW 6.4 km/h 12.9 km/h 92 % 0.25 mm 76 W/m2
17:03 11.9 °C 10.5 °C 1018.2 hPa WNW 4.8 km/h 12.9 km/h 91 % 0.25 mm 70 W/m2
17:08 11.9 °C 10.7 °C 1018.2 hPa WNW 3.2 km/h 9.7 km/h 92 % 0 mm 65 W/m2
17:13 11.9 °C 10.7 °C 1018.2 hPa WNW 4.8 km/h 11.3 km/h 92 % 0 mm 60 W/m2
17:18 11.9 °C 10.5 °C 1018.2 hPa WNW 4.8 km/h 11.3 km/h 91 % 0 mm 53 W/m2
17:23 11.9 °C 10.5 °C 1017.8 hPa WNW 3.2 km/h 9.7 km/h 91 % 0 mm 54 W/m2
17:28 11.9 °C 10.5 °C 1017.8 hPa WNW 1.6 km/h 8 km/h 91 % 0 mm 54 W/m2
17:33 11.9 °C 10.5 °C 1018.2 hPa WNW 1.6 km/h 8 km/h 91 % 0 mm 53 W/m2
17:38 11.9 °C 10.5 °C 1018.2 hPa NW 3.2 km/h 11.3 km/h 91 % 0 mm 49 W/m2
17:43 11.9 °C 10.5 °C 1018.2 hPa NW 4.8 km/h 11.3 km/h 91 % 0 mm 39 W/m2
17:48 11.9 °C 10.5 °C 1018.2 hPa NW 3.2 km/h 8 km/h 91 % 0 mm 28 W/m2
17:49 11.9 °C 10.5 °C 1018.2 hPa NW 3.2 km/h 9.7 km/h 91 % 0 mm 26 W/m2
17:54 11.8 °C 10.4 °C 1018.2 hPa NW 3.2 km/h 9.7 km/h 91 % 0 mm 23 W/m2
17:59 11.8 °C 10.2 °C 1018.2 hPa NNW 3.2 km/h 11.3 km/h 90 % 0 mm 18 W/m2
18:04 11.7 °C 10.1 °C 1018.2 hPa North 6.4 km/h 14.5 km/h 90 % 0 mm 16 W/m2
18:09 11.6 °C 9.8 °C 1018.2 hPa North 6.4 km/h 14.5 km/h 89 % 0 mm 14 W/m2
18:14 11.5 °C 9.7 °C 1018.2 hPa North 6.4 km/h 14.5 km/h 89 % 0 mm 12 W/m2
18:19 11.3 °C 9.6 °C 1018.2 hPa North 8 km/h 14.5 km/h 89 % 0 mm 12 W/m2
18:24 11.3 °C 9.6 °C 1018.2 hPa NNE 8 km/h 12.9 km/h 89 % 0 mm 12 W/m2
18:29 11.2 °C 9.6 °C 1018.2 hPa NNE 6.4 km/h 12.9 km/h 90 % 0.25 mm 12 W/m2
18:34 11.2 °C 9.6 °C 1018.5 hPa North 4.8 km/h 11.3 km/h 90 % 0.25 mm 12 W/m2
18:39 11.1 °C 9.7 °C 1018.5 hPa North 6.4 km/h 12.9 km/h 91 % 0.25 mm 12 W/m2
18:44 11 °C 9.6 °C 1018.5 hPa NNW 6.4 km/h 12.9 km/h 91 % 0.25 mm 11 W/m2
18:49 10.9 °C 9.5 °C 1018.5 hPa NNW 4.8 km/h 12.9 km/h 91 % 0.25 mm 11 W/m2
18:54 10.9 °C 9.5 °C 1018.5 hPa NW 3.2 km/h 11.3 km/h 91 % 0.25 mm 9 W/m2
18:59 10.8 °C 9.4 °C 1018.5 hPa NW 3.2 km/h 9.7 km/h 91 % 0.25 mm 5 W/m2
19:04 10.8 °C 9.4 °C 1018.5 hPa NW 4.8 km/h 11.3 km/h 91 % 0.51 mm 0 W/m2
19:09 10.7 °C 9.3 °C 1018.5 hPa NW 4.8 km/h 11.3 km/h 91 % 0.51 mm 0 W/m2
19:14 10.7 °C 9.4 °C 1018.5 hPa NW 4.8 km/h 9.7 km/h 92 % 0.51 mm 0 W/m2
19:19 10.7 °C 9.4 °C 1018.5 hPa NW 4.8 km/h 9.7 km/h 92 % 0.51 mm 0 W/m2
19:25 10.6 °C 9.3 °C 1018.8 hPa NW 3.2 km/h 9.7 km/h 92 % 0.25 mm 0 W/m2
19:30 10.6 °C 9.3 °C 1018.8 hPa NW 1.6 km/h 8 km/h 92 % 0.25 mm 0 W/m2
19:35 10.6 °C 9.3 °C 1018.8 hPa NW 3.2 km/h 9.7 km/h 92 % 0.51 mm 0 W/m2
19:40 10.5 °C 9.4 °C 1018.8 hPa NNW 4.8 km/h 9.7 km/h 93 % 0.51 mm 0 W/m2
19:45 10.5 °C 9.4 °C 1019.2 hPa NNW 4.8 km/h 11.3 km/h 93 % 0.51 mm 0 W/m2
19:50 10.4 °C 9.3 °C 1019.2 hPa NNW 3.2 km/h 11.3 km/h 93 % 0.51 mm 0 W/m2
19:55 10.4 °C 9.3 °C 1019.2 hPa NNW 1.6 km/h 11.3 km/h 93 % 0.51 mm 0 W/m2
20:01 10.4 °C 9.3 °C 1019.2 hPa NNW 1.6 km/h 8 km/h 93 % 0.51 mm 0 W/m2
20:03 10.4 °C 9.3 °C 1019.2 hPa NW 3.2 km/h 8 km/h 93 % 0.51 mm 0 W/m2
20:06 10.4 °C 9.3 °C 1019.2 hPa NW 4.8 km/h 9.7 km/h 93 % 0.51 mm 0 W/m2
20:11 10.4 °C 9.3 °C 1019.2 hPa NW 3.2 km/h 9.7 km/h 93 % 0.51 mm 0 W/m2
20:13 10.4 °C 9.3 °C 1019.2 hPa NW 3.2 km/h 9.7 km/h 93 % 0.51 mm 0 W/m2
20:16 10.4 °C 9.3 °C 1019.2 hPa NW 1.6 km/h 8 km/h 93 % 0.51 mm 0 W/m2
20:18 10.4 °C 9.3 °C 1019.2 hPa NNW 3.2 km/h 12.9 km/h 93 % 0.51 mm 0 W/m2
20:20 10.4 °C 9.5 °C 1019.2 hPa NNW 3.2 km/h 12.9 km/h 94 % 0.51 mm 0 W/m2
20:21 10.4 °C 9.5 °C 1019.2 hPa NNW 3.2 km/h 12.9 km/h 94 % 0.51 mm 0 W/m2
20:25 10.4 °C 9.5 °C 1019.2 hPa NNW 3.2 km/h 12.9 km/h 94 % 0.51 mm 0 W/m2
20:27 10.4 °C 9.5 °C 1019.5 hPa NNW 1.6 km/h 11.3 km/h 94 % 0.51 mm 0 W/m2
20:29 10.4 °C 9.5 °C 1019.5 hPa NNW 1.6 km/h 8 km/h 94 % 0.51 mm 0 W/m2
20:30 10.4 °C 9.5 °C 1019.5 hPa NNW 1.6 km/h 8 km/h 94 % 0.51 mm 0 W/m2
20:35 10.3 °C 9.4 °C 1019.2 hPa NW 1.6 km/h 6.4 km/h 94 % 0.51 mm 0 W/m2
20:39 10.4 °C 9.5 °C 1019.5 hPa NW 1.6 km/h 6.4 km/h 94 % 0.51 mm 0 W/m2
20:40 10.3 °C 9.4 °C 1019.5 hPa NW 1.6 km/h 6.4 km/h 94 % 0.51 mm 0 W/m2
20:45 10.3 °C 9.4 °C 1019.5 hPa Calm   6.4 km/h 94 % 0.51 mm 0 W/m2
20:52 10.3 °C 9.4 °C 1019.5 hPa Calm   3.2 km/h 94 % 0.51 mm 0 W/m2
20:57 10.3 °C 9.4 °C 1019.5 hPa Calm   3.2 km/h 94 % 0.51 mm 0 W/m2
20:58 10.3 °C 9.4 °C 1019.5 hPa NNW 1.6 km/h 9.7 km/h 94 % 0.51 mm 0 W/m2
21:01 10.3 °C 9.4 °C 1019.5 hPa NNW 1.6 km/h 9.7 km/h 94 % 0.51 mm 0 W/m2
21:04 10.2 °C 9.3 °C 1019.5 hPa NNW 3.2 km/h 11.3 km/h 94 % 0.51 mm 0 W/m2
21:06 10.2 °C 9.3 °C 1019.5 hPa NNW 3.2 km/h 11.3 km/h 94 % 0.51 mm 0 W/m2
21:08 10.2 °C 9.3 °C 1019.5 hPa NNW 3.2 km/h 11.3 km/h 94 % 0.51 mm 0 W/m2
21:13 10.2 °C 9.3 °C 1019.5 hPa Calm   3.2 km/h 94 % 0.51 mm 0 W/m2
21:18 10.2 °C 9.3 °C 1019.5 hPa Calm     94 % 0.51 mm 0 W/m2
21:28 10.2 °C 9.3 °C 1019.5 hPa NNW 1.6 km/h 9.7 km/h 94 % 1.02 mm 0 W/m2
21:30 10.1 °C 9.2 °C 1019.5 hPa NNW 3.2 km/h 9.7 km/h 94 % 1.02 mm 0 W/m2
21:36 9.9 °C 9 °C 1019.5 hPa NNE 4.8 km/h 12.9 km/h 94 % 0.76 mm 0 W/m2
21:37 9.8 °C 8.7 °C 1019.5 hPa NNE 6.4 km/h 12.9 km/h 93 % 0.76 mm 0 W/m2
21:42 9.7 °C 8.8 °C 1019.5 hPa NNE 4.8 km/h 12.9 km/h 94 % 0.76 mm 0 W/m2
21:47 9.7 °C 8.8 °C 1019.5 hPa North 1.6 km/h 8 km/h 94 % 0.76 mm 0 W/m2
21:49 9.7 °C 8.8 °C 1019.5 hPa North 1.6 km/h 8 km/h 94 % 0.76 mm 0 W/m2
21:50 9.7 °C 8.8 °C 1019.5 hPa North 1.6 km/h 8 km/h 94 % 0.76 mm 0 W/m2
21:53 9.6 °C 8.7 °C 1019.5 hPa NNW 1.6 km/h 8 km/h 94 % 0.76 mm 0 W/m2
21:54 9.6 °C 8.7 °C 1019.5 hPa NNW 1.6 km/h 8 km/h 94 % 0.76 mm 0 W/m2
21:55 9.6 °C 8.7 °C 1019.5 hPa NNW 1.6 km/h 8 km/h 94 % 0.76 mm 0 W/m2
21:56 9.6 °C 8.7 °C 1019.5 hPa NNW 1.6 km/h 8 km/h 94 % 0.76 mm 0 W/m2
22:01 9.6 °C 8.7 °C 1019.2 hPa Calm   6.4 km/h 94 % 0.51 mm 0 W/m2
22:06 9.5 °C 8.6 °C 1019.2 hPa Calm   6.4 km/h 94 % 0.51 mm 0 W/m2
22:11 9.4 °C 8.5 °C 1019.5 hPa Calm   1.6 km/h 94 % 0.51 mm 0 W/m2
22:16 9.4 °C 8.5 °C 1019.5 hPa Calm   6.4 km/h 94 % 0.51 mm 0 W/m2
22:21 9.4 °C 8.5 °C 1019.5 hPa Calm   6.4 km/h 94 % 0.25 mm 0 W/m2
22:26 9.3 °C 8.4 °C 1019.5 hPa Calm   1.6 km/h 94 % 0.25 mm 0 W/m2
22:31 9.3 °C 8.4 °C 1019.5 hPa Calm   1.6 km/h 94 % 0 mm 0 W/m2
22:36 9.3 °C 8.4 °C 1019.5 hPa Calm   1.6 km/h 94 % 0 mm 0 W/m2
22:41 9.2 °C 8.3 °C 1019.5 hPa Calm   3.2 km/h 94 % 0 mm 0 W/m2
22:46 9.1 °C 8.2 °C 1019.5 hPa Calm   3.2 km/h 94 % 0 mm 0 W/m2
22:51 9.1 °C 8.2 °C 1019.5 hPa Calm   6.4 km/h 94 % 0 mm 0 W/m2
22:56 9.1 °C 8.2 °C 1019.5 hPa NNE 1.6 km/h 8 km/h 94 % 0 mm 0 W/m2
23:01 9 °C 8.1 °C 1019.5 hPa NW 3.2 km/h 8 km/h 94 % 0 mm 0 W/m2
23:06 9 °C 8.1 °C 1019.5 hPa NW 1.6 km/h 8 km/h 94 % 0 mm 0 W/m2
23:11 8.9 °C 8.2 °C 1019.5 hPa NW 3.2 km/h 8 km/h 95 % 0 mm 0 W/m2
23:16 8.9 °C 8.2 °C 1019.5 hPa NW 4.8 km/h 8 km/h 95 % 0 mm 0 W/m2
23:21 8.9 °C 8.2 °C 1019.9 hPa NW 3.2 km/h 9.7 km/h 95 % 0 mm 0 W/m2
23:26 8.9 °C 8.2 °C 1019.9 hPa NW 1.6 km/h 9.7 km/h 95 % 0 mm 0 W/m2
23:31 8.8 °C 8.1 °C 1019.9 hPa NW 1.6 km/h 4.8 km/h 95 % 0 mm 0 W/m2
23:36 8.8 °C 8.1 °C 1019.9 hPa NW 1.6 km/h 3.2 km/h 95 % 0 mm 0 W/m2
23:41 8.7 °C 7.9 °C 1019.9 hPa Calm   4.8 km/h 95 % 0 mm 0 W/m2
23:46 8.6 °C 7.8 °C 1019.5 hPa Calm   4.8 km/h 95 % 0 mm 0 W/m2
23:52 8.5 °C 7.7 °C 1019.5 hPa Calm   1.6 km/h 95 % 0 mm 0 W/m2
23:57 8.4 °C 7.7 °C 1019.9 hPa Calm   1.6 km/h 95 % 0 mm 0 W/m2
Delerius-Weather
Compliments of Weather Underground - 2.5 mb

Data updates at regular intervals.